Regional Weather Roundup
Issued by NWS Eureka, CA

Home | Current Version | Previous Version | Text Only | Print | Product List | Glossary On
Versions: 1 2 3 4 5 6 7 8 9 10 11 12 13 14 15 16 17 18 19 20 21 22 23 24 25 26 27 28 29 30 31 32 33 34 35 36 37 38 39 40 41 42 43 44 45 46 47 48 49 50
000
ASUS46 KEKA 191614
RWREKA
Eureka Area Weather Roundup
National Weather Service Eureka CA
900 AM PDT MON AUG 19 2019

Note: "fair" indicates few or no clouds below 12,000 feet with no
significant weather and/or obstructions to visibility.

Southwest Oregon...

CITY           SKY/WX    TMP DP  RH WIND       PRES   REMARKS
MEDFORD        SUNNY     68  52  56 CALM      29.96R
KLAMATH FALLS  SUNNY     64  43  46 SE7       30.06R
NORTH BEND     PTSUNNY   64  58  80 N6        30.02R
ROSEBURG       CLOUDY    62  53  72 CALM      30.01R
SEXTON SUMMIT  SUNNY     61  52  72 SE3       30.03R
BROOKINGS      CLOUDY    54  53  97 S5        30.00R FOG

Northwest California...

CITY           SKY/WX    TMP DP  RH WIND       PRES   REMARKS
CRESCENT CITY  CLOUDY    56  55  97 CALM      29.99S
MCKINLEYVILLE  PTSUNNY   60  55  83 SW3       29.99R
EUREKA           N/A     61  32  33 CALM      29.99R
FORTUNA        CLOUDY    61  55  82 CALM      30.00R
WEAVERVILLE      N/A     63  45  51 CALM      30.01S
TRINITY CENTER   N/A     64  41  42 CALM      30.02S
UKIAH          SUNNY     61  54  77 SE5       29.95S

North & Central California...

CITY           SKY/WX    TMP DP  RH WIND       PRES   REMARKS
YREKA          SUNNY     71  43  36 NE7       30.00R
MOUNT SHASTA   SUNNY     64  44  48 CALM      30.04S
REDDING        SUNNY     71  52  50 CALM      29.93S
RED BLUFF      SUNNY     71  54  54 CALM      29.94S
CHICO          MOSUNNY   68  54  60 CALM      29.95S
YUBA CITY      SUNNY     64  56  75 S5        29.94R
SACRAMENTO     SUNNY     64  56  75 VRB5      29.94R
SANTA ROSA     CLOUDY    58  55  90 S3        29.97R
NAPA           CLOUDY    58  55  90 W6        29.97R
TRAVIS AFB     NOT AVBL
SAN FRANCISCO  CLOUDY    61  55  81 SW6       29.98R
OAKLAND        CLOUDY    62  55  77 SW9       29.99R
STOCKTON       NOT AVBL
SALINAS        CLOUDY    60  55  83 W5        29.99R
MONTEREY       CLOUDY    62  53  72 NW8       30.00R

$$



USA.gov is the U.S. government's official web portal to all federal, state and local government web resources and services.